Time,TemperatureF,DewpointF,PressureIn,WindDirection,WindDirectionDegrees,WindSpeedMPH,WindSpeedGustMPH,Humidity,HourlyPrecipIn,Conditions,Clouds,dailyrainin,SoftwareType,DateUTC
2013-01-18 00:02:00,18.0,9.0,-100.00,NW,310,6.0,10.0,69,-99.99,,,-99.99,,2013-01-18 06:02:00,
2013-01-18 00:33:00,14.0,6.0,-100.00,NW,325,0.0,2.0,71,-99.99,,,-99.99,,2013-01-18 06:33:00,
2013-01-18 00:43:00,14.0,6.0,-100.00,NW,325,0.0,2.0,71,-99.99,,,-99.99,,2013-01-18 06:43:00,
2013-01-18 00:53:00,14.0,6.0,-100.00,NW,325,0.0,2.0,71,-99.99,,,-99.99,,2013-01-18 06:53:00,
2013-01-18 01:02:00,14.0,8.0,-100.00,NNE,20,0.0,2.0,74,-99.99,,,-99.99,,2013-01-18 07:02:00,
2013-01-18 01:12:00,14.0,8.0,-100.00,NNE,20,0.0,2.0,74,-99.99,,,-99.99,,2013-01-18 07:12:00,
2013-01-18 01:22:00,14.0,8.0,-100.00,NNE,20,0.0,2.0,74,-99.99,,,-99.99,,2013-01-18 07:22:00,
2013-01-18 01:32:00,13.0,7.0,-100.00,East,85,0.0,1.0,75,-99.99,,,-99.99,,2013-01-18 07:32:00,
2013-01-18 01:42:00,13.0,7.0,-100.00,East,85,0.0,1.0,75,-99.99,,,-99.99,,2013-01-18 07:42:00,
2013-01-18 01:52:00,13.0,7.0,-100.00,East,85,0.0,1.0,75,-99.99,,,-99.99,,2013-01-18 07:52:00,
2013-01-18 02:02:00,13.0,7.0,-100.00,East,85,0.0,1.0,75,-99.99,,,-99.99,,2013-01-18 08:02:00,
2013-01-18 02:33:00,15.0,9.0,-100.00,South,180,0.0,1.0,77,-99.99,,,-99.99,,2013-01-18 08:33:00,
2013-01-18 02:43:00,15.0,9.0,-100.00,South,180,0.0,1.0,77,-99.99,,,-99.99,,2013-01-18 08:43:00,
2013-01-18 02:53:00,15.0,9.0,-100.00,South,180,0.0,1.0,77,-99.99,,,-99.99,,2013-01-18 08:53:00,
2013-01-18 03:02:00,15.0,9.0,-100.00,SSE,160,1.0,2.0,77,-99.99,,,-99.99,,2013-01-18 09:02:00,
2013-01-18 03:12:00,15.0,9.0,-100.00,SSE,160,1.0,2.0,77,-99.99,,,-99.99,,2013-01-18 09:12:00,
2013-01-18 03:22:00,15.0,9.0,-100.00,SSE,160,1.0,2.0,77,-99.99,,,-99.99,,2013-01-18 09:22:00,
2013-01-18 03:33:00,16.0,10.0,-100.00,SSE,150,2.0,2.0,77,-99.99,,,-99.99,,2013-01-18 09:33:00,
2013-01-18 03:42:00,16.0,10.0,-100.00,SSE,150,2.0,2.0,77,-99.99,,,-99.99,,2013-01-18 09:42:00,
2013-01-18 03:53:00,16.0,10.0,-100.00,SSE,150,2.0,2.0,77,-99.99,,,-99.99,,2013-01-18 09:53:00,
2013-01-18 04:02:00,16.0,10.0,-100.00,SSE,150,2.0,2.0,77,-99.99,,,-99.99,,2013-01-18 10:02:00,
2013-01-18 04:33:00,17.0,10.0,-100.00,ESE,105,4.0,9.0,75,-99.99,,,-99.99,,2013-01-18 10:33:00,
2013-01-18 04:43:00,17.0,10.0,-100.00,ESE,105,4.0,9.0,75,-99.99,,,-99.99,,2013-01-18 10:43:00,
2013-01-18 04:53:00,17.0,10.0,-100.00,ESE,105,4.0,9.0,75,-99.99,,,-99.99,,2013-01-18 10:53:00,
2013-01-18 05:02:00,17.0,10.0,-100.00,ESE,105,4.0,9.0,75,-99.99,,,-99.99,,2013-01-18 11:02:00,
2013-01-18 05:33:00,17.0,11.0,-100.00,SE,145,4.0,11.0,76,-99.99,,,-99.99,,2013-01-18 11:33:00,
2013-01-18 05:42:00,17.0,11.0,-100.00,SE,145,4.0,11.0,76,-99.99,,,-99.99,,2013-01-18 11:42:00,
2013-01-18 05:53:00,17.0,11.0,-100.00,SE,145,4.0,11.0,76,-99.99,,,-99.99,,2013-01-18 11:53:00,
2013-01-18 06:03:00,17.0,11.0,-100.00,SE,145,4.0,11.0,76,-99.99,,,-99.99,,2013-01-18 12:03:00,
2013-01-18 06:10:00,18.0,12.0,-100.00,SSE,160,6.0,13.0,76,-99.99,,,-99.99,,2013-01-18 12:10:00,
2013-01-18 06:33:00,18.0,12.0,-100.00,SSE,160,6.0,13.0,76,-99.99,,,-99.99,,2013-01-18 12:33:00,
2013-01-18 06:43:00,18.0,12.0,-100.00,SSE,160,6.0,13.0,76,-99.99,,,-99.99,,2013-01-18 12:43:00,
2013-01-18 06:53:00,18.0,12.0,-100.00,SSE,160,6.0,13.0,76,-99.99,,,-99.99,,2013-01-18 12:53:00,
2013-01-18 07:03:00,18.0,12.0,-100.00,SSE,160,6.0,13.0,76,-99.99,,,-99.99,,2013-01-18 13:03:00,
2013-01-18 07:33:00,20.0,13.0,-100.00,SSE,155,9.0,14.0,76,-99.99,,,-99.99,,2013-01-18 13:33:00,
2013-01-18 07:43:00,20.0,13.0,-100.00,SSE,155,9.0,14.0,76,-99.99,,,-99.99,,2013-01-18 13:43:00,
2013-01-18 07:53:00,20.0,13.0,-100.00,SSE,155,9.0,14.0,76,-99.99,,,-99.99,,2013-01-18 13:53:00,
2013-01-18 08:03:00,20.0,13.0,-100.00,SSE,155,9.0,14.0,76,-99.99,,,-99.99,,2013-01-18 14:03:00,
2013-01-18 08:12:00,21.0,14.0,-100.00,SE,135,9.0,14.0,74,-99.99,,,-99.99,,2013-01-18 14:12:00,
2013-01-18 08:23:00,21.0,14.0,-100.00,SE,135,9.0,14.0,74,-99.99,,,-99.99,,2013-01-18 14:23:00,
2013-01-18 08:33:00,22.0,14.0,-100.00,SSE,150,10.0,16.0,73,-99.99,,,-99.99,,2013-01-18 14:33:00,
2013-01-18 08:42:00,22.0,14.0,-100.00,SSE,150,10.0,16.0,73,-99.99,,,-99.99,,2013-01-18 14:42:00,
2013-01-18 08:53:00,22.0,14.0,-100.00,SSE,150,10.0,16.0,73,-99.99,,,-99.99,,2013-01-18 14:53:00,
2013-01-18 09:03:00,23.0,15.0,-100.00,SSE,155,7.0,18.0,72,-99.99,,,-99.99,,2013-01-18 15:03:00,
2013-01-18 09:12:00,23.0,15.0,-100.00,SSE,155,7.0,18.0,72,-99.99,,,-99.99,,2013-01-18 15:12:00,
2013-01-18 09:23:00,23.0,15.0,-100.00,SSE,155,7.0,18.0,72,-99.99,,,-99.99,,2013-01-18 15:23:00,
2013-01-18 09:33:00,26.0,17.0,-100.00,SSE,155,10.0,16.0,70,-99.99,,,-99.99,,2013-01-18 15:33:00,
2013-01-18 09:43:00,26.0,17.0,-100.00,SSE,155,10.0,16.0,70,-99.99,,,-99.99,,2013-01-18 15:43:00,
2013-01-18 09:54:00,26.0,17.0,-100.00,SSE,155,10.0,16.0,70,-99.99,,,-99.99,,2013-01-18 15:54:00,
2013-01-18 10:03:00,26.0,17.0,-100.00,SSE,155,10.0,16.0,70,-99.99,,,-99.99,,2013-01-18 16:03:00,
2013-01-18 10:33:00,31.0,20.0,-100.00,South,175,11.0,21.0,65,-99.99,,,-99.99,,2013-01-18 16:33:00,
2013-01-18 10:43:00,31.0,20.0,-100.00,South,175,11.0,21.0,65,-99.99,,,-99.99,,2013-01-18 16:43:00,
2013-01-18 10:53:00,31.0,20.0,-100.00,South,175,11.0,21.0,65,-99.99,,,-99.99,,2013-01-18 16:53:00,
2013-01-18 11:03:00,32.0,21.0,-100.00,South,175,9.0,22.0,63,-99.99,,,-99.99,,2013-01-18 17:03:00,
2013-01-18 11:13:00,32.0,21.0,-100.00,South,175,9.0,22.0,63,-99.99,,,-99.99,,2013-01-18 17:13:00,
2013-01-18 11:23:00,32.0,21.0,-100.00,South,175,9.0,22.0,63,-99.99,,,-99.99,,2013-01-18 17:23:00,
2013-01-18 11:33:00,34.0,22.0,-100.00,South,185,9.0,26.0,61,-99.99,,,-99.99,,2013-01-18 17:33:00,
2013-01-18 11:43:00,34.0,22.0,-100.00,South,185,9.0,26.0,61,-99.99,,,-99.99,,2013-01-18 17:43:00,
2013-01-18 11:53:00,34.0,22.0,-100.00,South,185,9.0,26.0,61,-99.99,,,-99.99,,2013-01-18 17:53:00,
2013-01-18 12:03:00,35.0,23.0,-100.00,South,180,9.0,24.0,60,-99.99,,,-99.99,,2013-01-18 18:03:00,
2013-01-18 12:13:00,35.0,23.0,-100.00,South,180,9.0,24.0,60,-99.99,,,-99.99,,2013-01-18 18:13:00,
2013-01-18 12:23:00,35.0,23.0,-100.00,South,180,9.0,24.0,60,-99.99,,,-99.99,,2013-01-18 18:23:00,
2013-01-18 12:33:00,37.0,22.0,-100.00,SSW,195,11.0,22.0,56,-99.99,,,-99.99,,2013-01-18 18:33:00,
2013-01-18 12:43:00,37.0,22.0,-100.00,SSW,195,11.0,22.0,56,-99.99,,,-99.99,,2013-01-18 18:43:00,
2013-01-18 12:53:00,37.0,22.0,-100.00,SSW,195,11.0,22.0,56,-99.99,,,-99.99,,2013-01-18 18:53:00,
2013-01-18 13:03:00,37.0,22.0,-100.00,SSW,195,11.0,22.0,56,-99.99,,,-99.99,,2013-01-18 19:03:00,
2013-01-18 13:33:00,39.0,24.0,-100.00,South,185,11.0,27.0,55,-99.99,,,-99.99,,2013-01-18 19:33:00,
2013-01-18 13:43:00,39.0,24.0,-100.00,South,185,11.0,27.0,55,-99.99,,,-99.99,,2013-01-18 19:43:00,
2013-01-18 13:53:00,39.0,24.0,-100.00,South,185,11.0,27.0,55,-99.99,,,-99.99,,2013-01-18 19:53:00,
2013-01-18 14:03:00,39.0,24.0,-100.00,South,185,11.0,27.0,55,-99.99,,,-99.99,,2013-01-18 20:03:00,
2013-01-18 14:10:00,41.0,24.0,-100.00,South,190,9.0,26.0,51,-99.99,,,-99.99,,2013-01-18 20:10:00,
2013-01-18 14:33:00,41.0,24.0,-100.00,South,190,9.0,26.0,51,-99.99,,,-99.99,,2013-01-18 20:33:00,
2013-01-18 14:43:00,41.0,24.0,-100.00,South,190,9.0,26.0,51,-99.99,,,-99.99,,2013-01-18 20:43:00,
2013-01-18 14:53:00,41.0,24.0,-100.00,South,190,9.0,26.0,51,-99.99,,,-99.99,,2013-01-18 20:53:00,
2013-01-18 15:03:00,41.0,24.0,-100.00,South,190,9.0,26.0,51,-99.99,,,-99.99,,2013-01-18 21:03:00,
2013-01-18 15:10:00,42.0,25.0,-100.00,South,180,7.0,19.0,52,-99.99,,,-99.99,,2013-01-18 21:10:00,
2013-01-18 15:33:00,42.0,25.0,-100.00,South,180,7.0,19.0,52,-99.99,,,-99.99,,2013-01-18 21:33:00,
2013-01-18 15:43:00,42.0,25.0,-100.00,South,180,7.0,19.0,52,-99.99,,,-99.99,,2013-01-18 21:43:00,
2013-01-18 15:53:00,42.0,25.0,-100.00,South,180,7.0,19.0,52,-99.99,,,-99.99,,2013-01-18 21:53:00,
2013-01-18 16:03:00,42.0,25.0,-100.00,South,180,7.0,19.0,52,-99.99,,,-99.99,,2013-01-18 22:03:00,
2013-01-18 16:10:00,41.0,26.0,-100.00,SSW,200,6.0,17.0,55,-99.99,,,-99.99,,2013-01-18 22:10:00,
2013-01-18 16:33:00,41.0,26.0,-100.00,SSW,200,6.0,17.0,55,-99.99,,,-99.99,,2013-01-18 22:33:00,
2013-01-18 16:43:00,41.0,26.0,-100.00,SSW,200,6.0,17.0,55,-99.99,,,-99.99,,2013-01-18 22:43:00,
2013-01-18 16:53:00,41.0,26.0,-100.00,SSW,200,6.0,17.0,55,-99.99,,,-99.99,,2013-01-18 22:53:00,
2013-01-18 17:03:00,41.0,26.0,-100.00,SSW,200,6.0,17.0,55,-99.99,,,-99.99,,2013-01-18 23:03:00,
2013-01-18 17:33:00,40.0,27.0,-100.00,South,175,6.0,15.0,59,-99.99,,,-99.99,,2013-01-18 23:33:00,
2013-01-18 17:43:00,40.0,27.0,-100.00,South,175,6.0,15.0,59,-99.99,,,-99.99,,2013-01-18 23:43:00,
2013-01-18 17:53:00,40.0,27.0,-100.00,South,175,6.0,15.0,59,-99.99,,,-99.99,,2013-01-18 23:53:00,
2013-01-18 18:02:00,40.0,27.0,-100.00,South,175,6.0,15.0,59,-99.99,,,-99.99,,2013-01-19 00:02:00,
2013-01-18 18:33:00,39.0,27.0,-100.00,South,180,6.0,12.0,62,-99.99,,,-99.99,,2013-01-19 00:33:00,
2013-01-18 18:43:00,39.0,27.0,-100.00,South,180,6.0,12.0,62,-99.99,,,-99.99,,2013-01-19 00:43:00,
2013-01-18 18:53:00,39.0,27.0,-100.00,South,180,6.0,12.0,62,-99.99,,,-99.99,,2013-01-19 00:53:00,
2013-01-18 19:02:00,39.0,27.0,-100.00,SSW,195,6.0,13.0,62,-99.99,,,-99.99,,2013-01-19 01:02:00,
2013-01-18 19:12:00,39.0,27.0,-100.00,SSW,195,6.0,13.0,62,-99.99,,,-99.99,,2013-01-19 01:12:00,
2013-01-18 19:22:00,39.0,27.0,-100.00,SSW,195,6.0,13.0,62,-99.99,,,-99.99,,2013-01-19 01:22:00,
2013-01-18 19:32:00,39.0,27.0,-100.00,South,190,5.0,11.0,63,-99.99,,,-99.99,,2013-01-19 01:32:00,
2013-01-18 19:43:00,39.0,27.0,-100.00,South,190,5.0,11.0,63,-99.99,,,-99.99,,2013-01-19 01:43:00,
2013-01-18 19:53:00,39.0,27.0,-100.00,South,190,5.0,11.0,63,-99.99,,,-99.99,,2013-01-19 01:53:00,
2013-01-18 20:02:00,39.0,27.0,-100.00,South,190,5.0,11.0,63,-99.99,,,-99.99,,2013-01-19 02:02:00,
2013-01-18 20:33:00,38.0,27.0,-100.00,SSW,195,3.0,11.0,67,-99.99,,,-99.99,,2013-01-19 02:33:00,
2013-01-18 20:43:00,38.0,27.0,-100.00,SSW,195,3.0,11.0,67,-99.99,,,-99.99,,2013-01-19 02:43:00,
2013-01-18 20:53:00,38.0,27.0,-100.00,SSW,195,3.0,11.0,67,-99.99,,,-99.99,,2013-01-19 02:53:00,
2013-01-18 21:03:00,37.0,27.0,-100.00,SSW,200,3.0,12.0,69,-99.99,,,-99.99,,2013-01-19 03:03:00,
2013-01-18 21:12:00,37.0,27.0,-100.00,SSW,200,3.0,12.0,69,-99.99,,,-99.99,,2013-01-19 03:12:00,
2013-01-18 21:22:00,37.0,27.0,-100.00,SSW,200,3.0,12.0,69,-99.99,,,-99.99,,2013-01-19 03:22:00,
2013-01-18 21:33:00,37.0,27.0,-100.00,South,180,3.0,11.0,69,-99.99,,,-99.99,,2013-01-19 03:33:00,
2013-01-18 21:44:00,37.0,27.0,-100.00,South,180,3.0,11.0,69,-99.99,,,-99.99,,2013-01-19 03:44:00,
2013-01-18 21:53:00,37.0,27.0,-100.00,South,180,3.0,11.0,69,-99.99,,,-99.99,,2013-01-19 03:53:00,
2013-01-18 22:02:00,37.0,27.0,-100.00,South,190,4.0,9.0,69,-99.99,,,-99.99,,2013-01-19 04:02:00,
2013-01-18 22:12:00,37.0,27.0,-100.00,South,190,4.0,9.0,69,-99.99,,,-99.99,,2013-01-19 04:12:00,
2013-01-18 22:22:00,37.0,27.0,-100.00,South,190,4.0,9.0,69,-99.99,,,-99.99,,2013-01-19 04:22:00,
2013-01-18 22:32:00,37.0,27.0,-100.00,SSW,200,3.0,10.0,68,-99.99,,,-99.99,,2013-01-19 04:32:00,
2013-01-18 22:43:00,37.0,27.0,-100.00,SSW,200,3.0,10.0,68,-99.99,,,-99.99,,2013-01-19 04:43:00,
2013-01-18 22:53:00,37.0,27.0,-100.00,SSW,200,3.0,10.0,68,-99.99,,,-99.99,,2013-01-19 04:53:00,
2013-01-18 23:03:00,37.0,27.0,-100.00,SW,230,4.0,12.0,68,-99.99,,,-99.99,,2013-01-19 05:03:00,
2013-01-18 23:12:00,37.0,27.0,-100.00,SW,230,4.0,12.0,68,-99.99,,,-99.99,,2013-01-19 05:12:00,
2013-01-18 23:23:00,37.0,27.0,-100.00,SW,230,4.0,12.0,68,-99.99,,,-99.99,,2013-01-19 05:23:00,
2013-01-18 23:33:00,37.0,27.0,-100.00,SSW,195,6.0,12.0,68,-99.99,,,-99.99,,2013-01-19 05:33:00,
2013-01-18 23:43:00,37.0,27.0,-100.00,SSW,195,6.0,12.0,68,-99.99,,,-99.99,,2013-01-19 05:43:00,
2013-01-18 23:53:00,37.0,27.0,-100.00,SSW,195,6.0,12.0,68,-99.99,,,-99.99,,2013-01-19 05:53:00,